weather.gov     
National Weather Service

Terminal Aerodrome Forecast
NWS Homepage
This page is being discontinued on March 12, 2014.
The same data is available at this site. Please update your bookmarks.
Thank you, and we apologize for the inconvenience.
Please send an email to SR-SRH.Webmaster@noaa.gov with any concerns.


Current Version
Previous Version:    01  02  03  04  05  06  07  08  09  10  11  12  13  14  15  16  17  18  19  20  21  22  23  24  25  26  27  28  29  30  
   31  
[Printable]
475
FTUS46 KSEW 251700 RRA
TAFBLI
TAF
KBLI 251735Z 2518/2618 14008KT P6SM SCT030 OVC090
      TEMPO 2518/2521 -RA BKN030 OVC080
     FM252100 03008KT P6SM -RA SCT025 OVC045
      TEMPO 2522/2602 4SM -RA BR OVC025
     FM260200 18018G27KT P6SM -RA OVC020
     FM261300 19010KT P6SM -SHRA BKN015 BKN035=


U.S. Dept. of Commerce
NOAA National Weather Service
1325 East West Highway
Silver Spring, MD 20910
E-mail: w-nws.webmaster@noaa.gov
Page last modified: May 16, 2007
NATIONAL WEATHER SERVICE: for Safety, for Work, for Fun - FOR LIFE